[[{"header":{"parameterUnit":"m.s-1","parameterCategory":1,"la1":30.2991,"la2":30.254,"lo1":-89.0895,"lo2":-89.0444,"dy":0.0017,"dx":0.0017,"nx":28,"ny":28,"refTime":"2024-06-17T09:00:00:Z","depth":0,"parameterNumber":2,"parameterNumberName":"U-component_of_WINDS"},"data":[0,0,0,0,0,0,0,0,0,0,0,0,0,0,0,0,0,0,0,0,0,0,0,0,0,0,0,0,0,0,0,0,0,0,0,0,0,0,0,0,0,0,0,0,0,0,0,0,0,0,0,0,0,0,0,0,0,0,-9.4876,-9.4876,0,-9.4894,-9.4894,-9.4895,-9.4679,-9.4673,-9.4667,-9.4661,-9.4677,-9.4683,-9.4689,0,0,0,0,0,0,0,0,0,0,0,0,0,-9.4652,-9.4657,-9.4876,-9.4876,-9.4876,-9.4894,-9.4894,-9.4895,-9.468,-9.4672,-9.4665,-9.4658,-9.4676,-9.4683,-9.469,0,0,0,0,0,0,0,0,0,0,0,0,0,-9.4718,-9.4659,-9.4876,-9.4771,-9.4762,-9.4894,-9.4894,-9.4895,-9.4681,-9.4672,-9.4663,-9.4655,-9.4673,-9.4682,-9.4691,-9.4923,0,0,-9.4718,-9.4722,0,0,0,0,0,0,0,0,-9.4714,-9.4726,-9.4786,-9.4779,-9.4769,-9.4775,-9.4821,-9.4904,-9.4683,-9.4712,-9.4661,-9.4651,-9.4717,-9.4722,-9.4744,-9.4924,-9.4924,-9.4719,-9.4724,-9.4728,-9.473,0,0,0,0,0,0,0,-9.471,-9.4724,-9.4883,-9.4788,-9.4777,-9.4722,-9.4722,-9.4836,-9.4764,-9.4709,-9.4693,-9.4698,-9.471,-9.4736,-9.4743,-9.4925,-9.4718,-9.4726,-9.4732,-9.4735,-9.5291,-9.53,0,0,0,0,0,0,-9.472,-9.4722,-9.4882,-9.4883,-9.4719,-9.4734,-9.4733,-9.4782,-9.4762,-9.475,-9.4706,-9.4688,-9.4726,-9.4733,-9.4743,-9.5009,-9.4728,-9.4736,-9.4741,-9.5282,-9.5294,-9.5304,0,0,0,0,0,0,-9.4716,-9.4736,-9.4882,-9.4798,-9.4813,-9.4747,-9.4803,-9.4787,-9.4812,-9.476,-9.4746,-9.4746,-9.4719,-9.473,-9.4879,-9.5007,-9.474,-9.4748,-9.5271,-9.5286,-9.5299,-9.5547,0,0,0,0,0,0,-9.471,-9.4736,-9.4824,-9.4802,-9.4818,-9.5019,-9.4812,-9.4794,-9.4829,-9.4806,-9.4793,-9.4783,-9.4713,-9.4867,-9.4888,-9.5014,-9.4755,-9.5259,-9.5277,-9.5294,-9.5527,-9.5568,-9.5603,0,0,0,0,0,-9.4703,-9.4894,-9.483,-9.485,-9.4927,-9.5027,-9.5035,-9.4952,-9.484,-9.4927,-9.4893,-9.4783,-9.4992,-9.4884,-9.4906,-9.5037,-9.525,-9.5272,-9.5293,-9.551,-9.556,-9.5602,0,0,0,0,0,0,-9.4931,-9.4889,-9.4817,-9.5007,-9.5022,-9.499,-9.5097,-9.5008,-9.5054,-9.5031,-9.4924,-9.4923,-9.5088,-9.5078,-9.496,-9.5259,-9.5101,-9.5128,-9.5258,-9.5306,-9.5343,-9.5339,-9.4763,0,0,0,0,0,-9.5004,-9.509,-9.5048,-9.5219,-9.523,-9.5164,-9.5204,-9.5138,-9.5149,-9.5154,-9.5131,-9.5145,-9.5213,-9.526,-9.532,-9.5527,-9.5518,-9.5628,-9.5666,-9.5697,-9.5719,-9.5824,-9.5871,-9.5373,-9.5373,-9.5373,0,0,-9.5154,-9.5142,-9.5202,-9.5264,-9.5268,-9.5357,-9.517,-9.5273,-9.5336,-9.5169,-9.5306,-9.5291,-9.53,-9.5478,-9.5555,-9.5474,-9.5856,-9.5724,-9.575,-9.5755,-9.5851,-9.5898,-9.594,-9.5388,-9.5385,-9.5383,0,0,-9.5472,-9.5474,-9.5614,-9.5622,-9.5631,-9.5585,-9.562,-9.5602,-9.5585,-9.5722,-9.5597,-9.5673,-9.5793,-9.5803,-9.5824,-9.6149,-9.6047,-9.6172,-9.6367,-9.6471,-9.651,-9.6544,-9.6654,-9.6696,-9.6195,-9.6196,-9.6197,0,-9.5656,-9.5786,-9.5697,-9.5808,-9.5837,-9.5692,-9.5832,-9.5844,-9.5873,-9.5896,-9.5806,-9.5953,-9.5949,-9.6125,-9.6204,-9.6229,-9.6261,-9.6169,-9.6512,-9.6545,-9.6576,-9.668,-9.6722,-9.6211,-9.6209,-9.6207,-9.6206,0,-9.601,-9.6103,-9.6215,-9.6246,-9.6289,-9.6415,-9.6343,-9.6397,-9.633,-9.6293,-9.6434,-9.6425,-9.6478,-9.6517,-9.6452,-9.6684,-9.6633,-9.6531,-9.6368,-9.6639,-9.6734,-9.6774,-9.6231,-9.6226,-9.6222,-9.6218,0,0,-9.6467,-9.6449,-9.6491,-9.6502,-9.6502,-9.6571,-9.669,-9.6743,-9.679,-9.6816,-9.6909,-9.7016,-9.692,-9.6944,-9.688,-9.6972,-9.7223,-9.6856,-9.6854,-9.692,-9.7473,-9.7546,-9.7594,-9.7159,-9.7166,-9.7172,-9.747,0,-9.6772,-9.6972,-9.6896,-9.7101,-9.7183,-9.7048,-9.715,-9.7161,-9.7132,-9.7196,-9.7163,-9.7238,-9.7109,-9.7122,-9.7208,-9.7174,-9.7331,-9.7153,-9.7241,-9.7246,-9.7237,-9.7645,-9.7722,-9.8004,-9.7508,-9.7514,-9.7519,0,-9.7152,-9.7193,-9.7407,-9.7391,-9.7422,-9.7516,-9.7557,-9.7623,-9.7632,-9.7604,-9.7633,-9.7548,-9.7661,-9.7505,-9.7658,-9.7538,-9.7571,-9.756,-9.7569,-9.7569,-9.7394,-9.7649,-9.8092,-9.8132,-9.7578,-9.7573,-9.7569,0,-9.7456,-9.7566,-9.7706,-9.7721,-9.7708,-9.7776,-9.7774,-9.7774,-9.7811,-9.7849,-9.7871,-9.7922,-9.7949,-9.799,-9.792,-9.7814,-9.8082,-9.792,-9.8058,-9.806,-9.8114,-9.8111,-9.8562,-9.8148,-9.8147,-9.8146,-9.8145,0,-9.78,-9.7935,-9.7842,-9.7928,-9.8075,-9.7987,-9.8134,-9.8117,-9.8119,-9.8198,-9.8087,-9.8163,-9.807,-9.8137,-9.8085,-9.8216,-9.8231,-9.8209,-9.8192,-9.8215,-9.8217,-9.823,-9.8206,-9.8157,-9.8155,-9.8153,-9.8151,0,-9.8162,-9.8106,-9.8249,-9.8226,-9.8224,-9.8332,-9.8311,-9.8388,-9.8353,-9.8454,-9.8473,-9.8416,-9.849,-9.8426,-9.8498,-9.8462,-9.8636,-9.8595,-9.8633,-9.8618,-9.8757,-9.8743,-9.9227,-9.9284,-9.884,-9.8844,-9.8848,0,-9.8381,-9.8481,-9.8469,-9.8514,-9.8519,-9.8594,-9.863,-9.8549,-9.8592,-9.8611,-9.8686,-9.875,-9.8796,-9.892,-9.8884,-9.8938,-9.8893,-9.906,-9.89,-9.8919,-9.8888,-9.888,-9.8888,-9.9089,-9.9095,-9.9099,-9.9103,0,-9.8775,-9.8743,-9.88,-9.8849,-9.8897,-9.8931,-9.8956,-9.9,-9.8916,-9.897,-9.9044,-9.9081,-9.9154,-9.9217,-9.926,-9.9256,-9.9165,-9.9155,-9.9188,-9.9209,-9.9224,-9.9212,-9.8714,-9.9142,-9.9138,-9.9135,-9.9133,-9.9131,-9.9067,-9.9149,-9.9153,-9.922,-9.9231,-9.9258,-9.9329,-9.9303,-9.9363,-9.9415,-9.9365,-9.9454,-9.946,-9.9507,-9.9515,-9.9582,-9.9512,-9.9562,-9.9573,-9.9585,-9.9603,-9.922,-9.959,-9.9589,-9.9588,-9.9587,-9.9586,0,-9.945,-9.9446,-9.951,-9.9549,-9.9602,-9.9516,-9.9539,-9.9589,-9.9668,-9.9683,-9.9731,-9.9815,-9.9877,-9.9848,-9.9901,-9.9961,-9.992,-9.9977,-9.9968,-9.9968,-9.9665,-9.9628,-10.0009,-10.0009,-10.0009,-10.0009,-10.0008,-10.0008,-9.9655,-9.9786,-9.9755,-9.9891,-9.9886,-9.9972,-9.9993,-10.0016,-10.0026,-10.0125,-10.0176,-10.0158,-10.0154,-10.0206,-10.0259,-10.0248,-10.0271,-10.0342,-10.0316,-10.0032,-9.999,-9.995,-9.9914,-10.0349,-10.0349,-10.0612,-10.0615,-10.0617]},{"header":{"parameterUnit":"m.s-1","parameterCategory":1,"la1":30.2991,"la2":30.254,"lo1":-89.0895,"lo2":-89.0444,"dy":0.0017,"dx":0.0017,"nx":28,"ny":28,"refTime":"2024-06-17T09:00:00:Z","depth":0,"parameterNumber":3,"parameterNumberName":"V-component_of_WINDS"},"data":[0,0,0,0,0,0,0,0,0,0,0,0,0,0,0,0,0,0,0,0,0,0,0,0,0,0,0,0,0,0,0,0,0,0,0,0,0,0,0,0,0,0,0,0,0,0,0,0,0,0,0,0,0,0,0,0,0,0,2.2265,2.2266,0,2.2345,2.2346,2.2347,2.2318,2.2316,2.2314,2.2312,2.2393,2.2397,2.24,0,0,0,0,0,0,0,0,0,0,0,0,0,2.2087,2.209,2.2265,2.2266,2.2267,2.2345,2.2346,2.2347,2.2318,2.2316,2.2314,2.2312,2.2392,2.2396,2.2401,0,0,0,0,0,0,0,0,0,0,0,0,0,2.2165,2.2091,2.2265,2.2262,2.2263,2.2345,2.2346,2.2348,2.2319,2.2316,2.2313,2.2311,2.239,2.2396,2.2401,2.2491,0,0,2.2419,2.2421,0,0,0,0,0,0,0,0,2.2161,2.2172,2.2261,2.2262,2.2263,2.2319,2.2313,2.2396,2.2319,2.2297,2.2312,2.2309,2.237,2.2377,2.2398,2.2495,2.2498,2.2419,2.2423,2.2425,2.2427,0,0,0,0,0,0,0,2.2156,2.2168,2.2297,2.2263,2.2264,2.2257,2.2265,2.2328,2.2348,2.2299,2.2297,2.2307,2.237,2.2393,2.24,2.2499,2.2419,2.2424,2.2428,2.243,2.2675,2.2678,0,0,0,0,0,0,2.215,2.2164,2.2294,2.2299,2.2204,2.2262,2.2271,2.2304,2.2347,2.2351,2.2309,2.2305,2.2384,2.2393,2.2403,2.2511,2.2425,2.2431,2.2434,2.2672,2.2676,2.2679,0,0,0,0,0,0,2.2146,2.2162,2.2291,2.2231,2.2247,2.2268,2.2305,2.2307,2.2329,2.2355,2.2358,2.2329,2.2383,2.2395,2.247,2.2514,2.2433,2.2438,2.2669,2.2673,2.2678,2.2729,0,0,0,0,0,0,2.2141,2.2161,2.2195,2.2232,2.225,2.2357,2.2307,2.231,2.2339,2.2335,2.2374,2.2378,2.2381,2.2461,2.2476,2.252,2.2443,2.2665,2.2671,2.2676,2.2723,2.2735,2.2745,0,0,0,0,0,2.2135,2.2205,2.2196,2.2212,2.2293,2.2359,2.237,2.2373,2.2343,2.2378,2.2395,2.2377,2.2507,2.2469,2.2485,2.2532,2.2662,2.2669,2.2676,2.2719,2.2733,2.2744,0,0,0,0,0,0,2.2171,2.221,2.2201,2.2285,2.2319,2.2354,2.2397,2.2387,2.243,2.2424,2.2425,2.2434,2.2512,2.253,2.2487,2.2622,2.258,2.259,2.2607,2.2621,2.2631,2.2625,2.2448,0,0,0,0,0,2.2189,2.2239,2.2271,2.2342,2.236,2.2376,2.2405,2.2405,2.244,2.2454,2.2476,2.251,2.2559,2.2591,2.2637,2.2727,2.2735,2.2767,2.2777,2.2786,2.2794,2.2844,2.2859,2.2702,2.2702,2.2702,0,0,2.2226,2.2254,2.2285,2.235,2.2376,2.2429,2.2388,2.2445,2.2484,2.2462,2.2534,2.2553,2.2591,2.2674,2.2712,2.2691,2.284,2.2795,2.2801,2.2805,2.2853,2.2868,2.2881,2.2707,2.2706,2.2705,0,0,2.232,2.2346,2.2409,2.2437,2.2478,2.2489,2.2504,2.2542,2.2553,2.2626,2.2612,2.2658,2.2742,2.2771,2.2796,2.2905,2.289,2.292,2.2975,2.3023,2.3035,2.3046,2.3086,2.3099,2.2929,2.2929,2.2929,0,2.236,2.2439,2.2443,2.2501,2.2531,2.2516,2.258,2.2607,2.266,2.2681,2.2658,2.2764,2.2789,2.2879,2.2906,2.2927,2.2945,2.2915,2.3034,2.3045,2.3055,2.3092,2.3107,2.2932,2.2932,2.2932,2.2931,0,2.2487,2.2542,2.2588,2.2642,2.2677,2.2738,2.2752,2.2787,2.2784,2.2798,2.2873,2.2903,2.2956,2.2978,2.2975,2.3068,2.3054,2.3033,2.299,2.3073,2.3108,2.3122,2.2937,2.2936,2.2935,2.2934,0,0,2.2604,2.2661,2.2678,2.2703,2.2749,2.2791,2.2853,2.2905,2.2935,2.2974,2.3025,2.3098,2.3079,2.3108,2.3109,2.3152,2.3237,2.3125,2.3126,2.3145,2.3343,2.3358,2.3375,2.3229,2.3232,2.3234,2.3339,0,2.2701,2.2809,2.2816,2.2913,2.2965,2.2952,2.3006,2.304,2.3055,2.3101,2.3117,2.3169,2.314,2.3158,2.32,2.3218,2.3277,2.3211,2.3277,2.3279,2.3266,2.3393,2.3409,2.3507,2.3353,2.3355,2.3357,0,2.2829,2.2873,2.2977,2.3017,2.3039,2.3087,2.3137,2.3181,2.322,2.3228,2.3262,2.3258,2.3321,2.3278,2.3366,2.3321,2.3349,2.3362,2.3366,2.3371,2.3322,2.3401,2.3538,2.3553,2.3379,2.3377,2.3375,0,2.2904,2.2989,2.3062,2.3084,2.3133,2.3167,2.3189,2.3226,2.3258,2.3302,2.3323,2.3373,2.34,2.344,2.345,2.3417,2.3538,2.3495,2.3546,2.3546,2.3571,2.3569,2.3714,2.359,2.359,2.359,2.3589,0,2.3012,2.3075,2.3097,2.3142,2.3213,2.3221,2.3291,2.3311,2.3344,2.3393,2.3386,2.3431,2.3442,2.349,2.3499,2.3571,2.3583,2.3591,2.3593,2.3592,2.3591,2.3609,2.3602,2.3593,2.3593,2.3592,2.3591,0,2.3106,2.3123,2.3202,2.3243,2.3255,2.3306,2.3341,2.3384,2.34,2.3462,2.3477,2.3501,2.3557,2.3572,2.3639,2.3645,2.373,2.3725,2.3716,2.3716,2.3766,2.3761,2.3927,2.395,2.3812,2.3813,2.3814,0,2.3174,2.3223,2.327,2.3302,2.3326,2.3379,2.3412,2.3422,2.3457,2.3507,2.3545,2.3601,2.3646,2.3738,2.3761,2.3813,2.3809,2.3864,2.3816,2.3814,2.3809,2.3806,2.3811,2.3872,2.3873,2.3874,2.3875,0,2.3291,2.3298,2.3346,2.3399,2.3439,2.3481,2.352,2.3548,2.3563,2.3603,2.3662,2.3697,2.3767,2.3823,2.3876,2.3899,2.389,2.3891,2.3905,2.3904,2.3897,2.3902,2.374,2.3886,2.3885,2.3884,2.3884,2.3883,2.3374,2.3418,2.3458,2.3513,2.3545,2.3583,2.3626,2.3648,2.3697,2.3755,2.3759,2.3822,2.3862,2.3933,2.3959,2.4009,2.3992,2.4013,2.4019,2.4024,2.4028,2.3891,2.4019,2.4019,2.4018,2.4018,2.4018,0,2.3492,2.3518,2.3568,2.3625,2.3669,2.3658,2.3702,2.3739,2.3796,2.3834,2.388,2.3948,2.4003,2.4032,2.4087,2.4122,2.4119,2.4136,2.4133,2.4138,2.404,2.4022,2.4137,2.4137,2.4137,2.4137,2.4137,2.4137,2.3558,2.3631,2.3643,2.3733,2.3758,2.3822,2.3848,2.3883,2.3914,2.3991,2.4037,2.4056,2.4091,2.4149,2.4199,2.4206,2.4227,2.4245,2.425,2.4157,2.4145,2.4133,2.4116,2.425,2.425,2.4345,2.4345,2.4346]}]]